sat.trackr.live / text

‹ back to catalog

STARLINK-34662

NORAD 64799 · 2025-150K

PAYLOAD ACTIVE UNKNOWN

§ Identity

Operator
Country
US
Launch date
2025-07-16
Launch site
AFWTR
Launch vehicle
Mass (kg)
RCS (m²)

Purposes: comms

External: N2YO · Heavens-Above · Gunter

§ Orbital elements

Epoch: 2026-05-25T03:33:30.011328Z

Period
96.11 min
Inclination
70.0003°
Eccentricity
0.0002471
Mean motion
14.98348690 rev/d
Perigee alt
570.3 km
Apogee alt
573.7 km
Semi-major
6,950.1 km
B*
3.8349e-4
RAAN
301.5143°
Arg perigee
266.1867°
Mean anomaly
93.9010°
Rev number
4,797

§ Raw data

STARLINK-346621 64799U 25150K   26145.14826402  .00004488  00000+0  38349-3 0  99962 64799  70.0003 301.5143 0002471 266.1867  93.9010 14.98348690 47975

JSON: /api/v1/satellites/64799 · /tle

For live sub-satellite position, see the globe view (requires WebGL).

§ Visibility from observer

Set your observer location to see the next 7 days of passes ≥ 10°. The values pass through the URL so the page stays shareable.

No JS? Fill the form by hand. The geolocation button needs JavaScript.